Location: Bavegemberg
(50.9500°N, 3.8833°E)
Time: 14:57:01
(UTC+00:00)

Cosmos 1733 Rocket - Pass Details

Date: 23 May 2024
Orbit: 600 x 624 km, 82.5° (Epoch: 18 June)

Event Time Altitude Azimuth Distance (km) Brightness Sun altitude
Rises 00:23:49 0° 348° (NNW) 2,867 7.7 -17.8°
Reaches altitude 10° 00:26:02 10° 347° (NNW) 1,960 6.6 -17.7°
Maximum altitude 00:30:22 77° 262° (W) 626 3.0 -17.6°
Enters shadow 00:32:03 36° 182° (S) 961 3.5 -17.5°
